FW4137 Weather Reports


time (UTC)temp
F
wind
direction
speed
knots
gust
knots
rain 1hr
in
rain 24hr
in
rain mn
in
humidity
%
barometer
mb
20260902033057 67 360 0.0 0.0 0.00 0.00 0.00 75 1003.0
20260902031556 67 360 0.0 0.0 0.00 0.00 0.00 74 1003.0
20260902030056 67 360 0.0 0.0 0.00 0.00 0.00 73 1003.0
20260902024558 67 360 0.0 0.0 0.00 0.00 0.00 73 1003.0
20260902023108 68 360 0.0 0.0 0.00 0.00 0.00 72 1003.0
20260902021556 68 360 0.0 0.0 0.00 0.00 0.00 70 1003.0
20260902020055 68 360 0.0 0.0 0.00 0.00 0.00 70 1002.9
20260902014554 68 360 0.0 0.0 0.00 0.00 0.00 68 1003.0
20260902013054 68 360 0.0 0.0 0.00 0.00 0.00 67 1002.9
20260902011622 69 360 0.0 0.0 0.00 0.00 0.00 68 1002.7
20260902010053 69 360 0.0 0.0 0.00 0.00 0.00 68 1002.7
20260902004553 69 360 0.0 0.0 0.00 0.00 0.00 69 1002.6
20260902003053 69 360 0.0 0.0 0.00 0.00 0.00 73 1002.5
20260902001555 69 360 0.0 0.0 0.00 0.00 0.00 73 1002.4
20260902000055 69 360 0.0 0.0 0.00 0.00 0.00 74 1002.4
20260901234559 69 360 0.0 0.0 0.00 0.00 0.00 74 1002.3
20260901233051 69 360 0.0 0.0 0.00 0.00 0.00 72 1002.4
20260901231607 70 360 0.0 0.0 0.00 0.00 0.00 71 1002.4
20260901224549 71 360 0.0 0.0 0.00 0.00 0.00 64 1002.0
20260901223050 72 360 0.0 0.0 0.00 0.00 0.00 62 1002.1
20260901221609 72 360 0.0 0.0 0.00 0.00 0.00 61 1002.1
20260901220100 73 360 0.0 0.0 0.00 0.00 0.00 60 1002.3
20260901214543 74 360 0.0 0.0 0.00 0.00 0.00 58 1002.5
20260901213100 74 360 0.0 0.0 0.00 0.00 0.00 57 1002.6
20260901211542 75 360 0.0 0.0 0.00 0.00 0.00 57 1002.5
20260901210040 75 360 0.0 0.0 0.00 0.00 0.00 59 1002.6
20260901204537 74 360 0.0 0.0 0.00 0.00 0.00 61 1002.8
20260901203040 74 360 0.0 0.0 0.00 0.00 0.00 60 1002.8
20260901201534 74 360 0.0 0.0 0.00 0.00 0.00 61 1002.8
20260901200037 73 360 0.0 0.0 0.00 0.00 0.00 64 1002.8
20260901194529 73 360 0.0 0.0 0.00 0.00 0.00 66 1003.0
20260901193027 72 360 0.0 0.0 0.00 0.00 0.00 67 1003.2
20260901191539 72 360 0.0 0.0 0.00 0.00 0.00 67 1003.1
20260901190025 71 360 0.0 0.0 0.00 0.00 0.00 69 1003.2
20260901184523 72 360 0.0 0.0 0.00 0.00 0.00 69 1003.4
20260901183032 70 360 0.0 0.0 0.00 0.00 0.00 71 1003.6
20260901181523 70 360 0.0 0.0 0.00 0.00 0.00 73 1003.7
20260901180015 69 360 0.0 0.0 0.00 0.00 0.00 74 1003.8
20260901174514 68 360 0.0 0.0 0.00 0.00 0.00 76 1003.8
20260901173013 68 360 0.0 0.0 0.00 0.00 0.00 77 1003.8
20260901171509 67 360 0.0 0.0 0.00 0.00 0.00 79 1003.9
20260901170007 65 360 0.0 0.0 0.00 0.00 0.00 82 1003.9
20260901164503 63 360 0.0 0.0 0.00 0.00 0.00 84 1003.9
20260901163003 61 360 0.0 0.0 0.00 0.00 0.00 83 1003.9
20260901161503 61 360 0.0 0.0 0.00 0.00 0.00 83 1004.0
20260901160001 60 360 0.0 0.0 0.00 0.00 0.00 83 1004.0
20260901154503 60 166 0.0 0.0 0.00 0.00 0.00 82 1004.2
20260901153119 59 360 0.0 0.0 0.00 0.00 0.00 82 1004.1
20260901151558 60 360 0.0 0.0 0.00 0.00 0.00 81 1003.9
20260901150110 59 360 0.0 0.0 0.00 0.00 0.00 78 1003.9
20260901144600 58 360 0.0 0.0 0.00 0.00 0.00 72 1003.7
20260901143113 57 360 0.0 0.0 0.00 0.00 0.00 72 1003.5
20260901141606 57 360 0.0 0.0 0.00 0.00 0.00 73 1003.3
20260901140131 56 360 0.0 0.0 0.00 0.00 0.00 74 1003.4
20260901134553 56 360 0.0 0.0 0.00 0.00 0.00 77 1003.4
20260901133051 57 360 0.0 0.0 0.00 0.00 0.00 78 1003.4
20260901131550 57 360 0.0 0.0 0.00 0.00 0.00 78 1003.4
20260901130050 57 360 0.0 0.0 0.00 0.00 0.00 79 1003.5
20260901124551 57 360 0.0 0.0 0.00 0.00 0.00 80 1003.5
20260901123048 57 177 0.0 0.0 0.00 0.00 0.00 80 1003.6
20260901121546 58 178 0.0 0.0 0.00 0.00 0.00 80 1003.5
20260901120045 58 180 0.0 0.0 0.00 0.00 0.00 80 1003.7
20260901114544 58 180 0.0 0.0 0.00 0.00 0.00 81 1003.7
20260901113042 58 180 0.0 0.0 0.00 0.00 0.00 82 1003.7
20260901111541 58 182 0.0 0.0 0.00 0.00 0.00 82 1003.8
20260901110040 58 182 0.0 0.0 0.00 0.00 0.00 82 1003.6
20260901104540 59 178 0.0 0.0 0.00 0.00 0.00 83 1003.6
20260901103036 59 180 0.0 0.0 0.00 0.00 0.00 84 1003.6
20260901101554 59 183 0.0 0.0 0.00 0.00 0.00 83 1003.5
20260901100039 59 182 0.0 0.0 0.00 0.00 0.00 83 1003.4
20260901094539 59 360 0.0 0.0 0.00 0.00 0.00 84 1003.3
20260901093030 60 360 0.0 0.0 0.00 0.00 0.00 84 1003.3
20260901091545 60 360 0.0 0.0 0.00 0.00 0.00 84 1003.2
20260901090028 60 360 0.0 0.0 0.00 0.00 0.00 83 1003.2
20260901084536 60 360 0.0 0.0 0.00 0.00 0.00 84 1003.3
20260901083035 61 360 0.0 0.0 0.00 0.00 0.00 85 1003.2
20260901081523 61 360 0.0 0.0 0.00 0.00 0.00 85 1003.3
20260901080049 62 360 0.0 0.0 0.00 0.00 0.00 85 1003.4
20260901074521 62 360 0.0 0.0 0.00 0.00 0.00 85 1003.4
20260901073021 63 360 0.0 0.0 0.00 0.00 0.00 84 1003.2
20260901071514 63 360 0.0 0.0 0.00 0.00 0.00 84 1003.2
20260901070014 64 360 0.0 0.0 0.00 0.00 0.00 83 1003.2
20260901064514 64 360 0.0 0.0 0.00 0.00 0.00 82 1003.2
20260901063012 64 360 0.0 0.0 0.00 0.00 0.00 83 1003.3
20260901061510 64 360 0.0 0.0 0.00 0.00 0.00 83 1003.3
20260901060009 65 360 0.0 0.0 0.00 0.00 0.00 81 1003.2
20260901054509 65 188 0.0 0.0 0.00 0.00 0.00 81 1003.2
20260901053009 66 188 0.0 0.0 0.00 0.00 0.00 80 1003.2
20260901051508 67 188 0.0 0.9 0.00 0.00 0.00 78 1003.1
20260901050008 68 188 0.0 0.0 0.00 0.00 0.00 75 1003.0
20260901044507 69 189 0.0 0.0 0.00 0.00 0.00 73 1003.0
20260901043015 69 200 0.0 0.0 0.00 0.00 0.00 73 1003.2
20260901041506 70 202 0.0 0.0 0.00 0.00 0.00 73 1003.1
20260901040008 70 360 0.0 0.0 0.00 0.00 0.00 71 1002.9